Simultaneous Nadir Overpasses (SNOs) Predictions

Prediction of SNOs between GOES-16 and METOP-C Satellite Orbit:

Table of predicted SNOs for the next 14.0 days since TLE Epoch: 2/1/2025
Index Date Time (GOES-16) GOES-16 Lat,Lon METOP-C Lat,Lon Distance(km) Time Diff (sec)
1 02/02/2025 02:24:01 -0.00, -75.18 0.32, -73.61 178.29 80
2 02/03/2025 14:42:53 0.00, -75.24 0.64, -78.18 334.53 80
3 02/04/2025 14:24:54 0.00, -75.26 -0.48, -73.19 236.62 80
4 02/06/2025 02:43:53 -0.01, -75.25 -0.60, -77.77 288.10 80
5 02/07/2025 02:20:34 -0.01, -75.27 0.52, -72.78 283.01 80
6 02/08/2025 14:39:25 0.01, -75.33 0.47, -77.34 229.23 80
7 02/09/2025 14:21:25 0.01, -75.36 -0.66, -72.35 342.43 80
8 02/11/2025 02:40:26 -0.02, -75.36 -0.35, -76.95 180.95 80
9 02/12/2025 02:17:05 -0.01, -75.38 0.73, -71.95 391.10 80
10 02/13/2025 14:35:57 0.01, -75.46 0.25, -76.51 119.48 80
11 02/14/2025 14:15:17 0.01, -75.50 -0.89, -71.52 453.39 80
